Location: Mesa Verde
(33.6055°N, 114.7275°W)
Time: 21:46:46
(UTC+00:00)

N. Korean satellite - Pass Details

Date: 29 September 2021
Orbit: 450 x 495 km, 97.3° (Epoch: 23 October)

Event Time Altitude Azimuth Distance (km) Brightness Sun altitude
Rises 12:40:22 0° 15° (NNE) 2,545 10.5 -11.6°
Reaches altitude 10° 12:42:27 10° 18° (NNE) 1,669 9.6 -11.2°
Maximum altitude 12:46:01 63° 100° (E) 547 7.1 -10.4°
Drops below altitude 10° 12:49:35 10° 183° (S) 1,677 9.2 -9.7°
Sets 12:51:41 0° 186° (S) 2,558 10.1 -9.3°
